Fort Worth Alliance, TX

3:17 PM CST on January 20, 2018 (GMT -0600)
Fort Worth Alliance

Weather History for KAFW - December, 2013

Change the Weather History Date:

Tuesday, December 31, 2013

  Actual Average Record
Temperature  
Mean Temperature 36 °F -  
Max Temperature 53 °F 54 °F 73 °F (2005)
Min Temperature 19 °F 32 °F 19 °F (2013)
Degree Days  
Heating Degree Days 29    
Moisture  
Dew Point 23 °F    
Average Humidity 60    
Maximum Humidity 85    
Minimum Humidity 34    
Precipitation  
Precipitation 0.00 in - - ()
Sea Level Pressure  
Sea Level Pressure 30.36 in    
Wind  
Wind Speed 4 mph (South)    
Max Wind Speed 12 mph    
Max Gust Speed -    
Visibility 10 miles    
Events      
Averages and records for this station are not official NWS values.
T = Trace of Precipitation, MM = Missing Value Source: NWS Daily Summary

Daily Weather History Graph

Daily Weather History Graph

Search for Another Location

Airport or City:

Trip Planner

Search our weather history database for the weather conditions in past years. The results will help you decide how hot, cold, wet, or windy it might be!

Date:

Astronomy

Dec. 31, 2013 Rise Set
Actual Time 7:32 AM CST 5:33 PM CST
Civil Twilight 7:04 AM CST 6:00 PM CST
Nautical Twilight 6:33 AM CST 6:31 PM CST
Astronomical Twilight 6:03 AM CST 7:01 PM CST
Moon 6:28 AM CST (12/31) 5:08 PM CST (12/31)
Length of Visible Light 10h 55m
Length of Day
10h 00m
Waning Crescent, 1% of the Moon is Illuminated
Dec 31
Waning Crescent
Jan 1
New
Jan 7
First Quarter
Jan 15
Full
Jan 23
Last Quarter

Hourly Weather History & Observations

Time (CST) Temp. Windchill Dew Point Humidity Pressure Visibility Wind Dir Wind Speed Gust Speed Precip Events Conditions
12:53 AM 21.0 °F - 17.1 °F 85% 30.44 in 10.0 mi Calm Calm - N/A   Clear
1:53 AM 23.0 °F - 18.0 °F 81% 30.43 in 10.0 mi Calm Calm - N/A   Clear
2:53 AM 24.1 °F - 17.1 °F 75% 30.42 in 10.0 mi Calm Calm - N/A   Clear
3:53 AM 23.0 °F 17.0 °F 17.1 °F 78% 30.43 in 10.0 mi SW 4.6 mph - N/A   Clear
4:53 AM 23.0 °F 17.0 °F 18.0 °F 81% 30.45 in 10.0 mi SW 4.6 mph - N/A   Clear
5:53 AM 24.1 °F 19.7 °F 18.0 °F 77% 30.44 in 10.0 mi North 3.5 mph - N/A   Partly Cloudy
6:53 AM 19.9 °F 14.9 °F 16.0 °F 85% 30.45 in 10.0 mi SW 3.5 mph - N/A   Partly Cloudy
7:53 AM 21.0 °F 16.2 °F 17.1 °F 85% 30.46 in 10.0 mi South 3.5 mph - N/A   Partly Cloudy
8:53 AM 32.0 °F - 24.1 °F 73% 30.47 in 10.0 mi Calm Calm - N/A   Partly Cloudy
9:53 AM 37.9 °F - 23.0 °F 55% 30.46 in 10.0 mi Calm Calm - N/A   Clear
10:53 AM 43.0 °F 40.3 °F 23.0 °F 45% 30.45 in 10.0 mi SSW 4.6 mph - N/A   Clear
11:53 AM 46.0 °F 41.9 °F 23.0 °F 40% 30.43 in 10.0 mi South 8.1 mph - N/A   Clear
12:53 PM 50.0 °F - 23.0 °F 35% 30.38 in 10.0 mi SSE 8.1 mph - N/A   Clear
1:53 PM 51.1 °F - 24.1 °F 35% 30.34 in 10.0 mi SSE 5.8 mph - N/A   Clear
2:53 PM 53.1 °F - 25.0 °F 34% 30.31 in 10.0 mi South 8.1 mph - N/A   Clear
3:53 PM 53.1 °F - 25.0 °F 34% 30.29 in 10.0 mi SSE 11.5 mph - N/A   Partly Cloudy
4:53 PM 50.0 °F - 26.1 °F 39% 30.29 in 10.0 mi SSE 11.5 mph - N/A   Partly Cloudy
5:53 PM 44.1 °F 40.1 °F 27.0 °F 51% 30.27 in 10.0 mi South 6.9 mph - N/A   Partly Cloudy
6:53 PM 43.0 °F 39.5 °F 26.1 °F 51% 30.28 in 10.0 mi SSE 5.8 mph - N/A   Clear
7:53 PM 42.1 °F 38.4 °F 27.0 °F 55% 30.27 in 10.0 mi SSE 5.8 mph - N/A   Clear
8:53 PM 41.0 °F 35.2 °F 27.0 °F 57% 30.25 in 10.0 mi SSE 9.2 mph - N/A   Clear
9:53 PM 39.9 °F 35.1 °F 26.1 °F 58% 30.24 in 10.0 mi South 6.9 mph - N/A   Clear
10:53 PM 39.9 °F 34.5 °F 27.0 °F 60% 30.22 in 10.0 mi South 8.1 mph - N/A   Clear
11:53 PM 37.9 °F 32.7 °F 27.0 °F 65% 30.19 in 10.0 mi South 6.9 mph - N/A   Clear